Regional Weather Roundup
Issued by NWS

Home | Current Version | Previous Version | Graphics & Text | Print | Product List | Glossary Off
Versions: 1 2 3 4 5 6 7 8 9 10 11 12 13 14 15 16 17 18 19 20 21 22 23 24 25 26 27 28 29 30 31 32 33 34 35 36 37 38 39 40 41 42 43 44 45 46 47 48 49 50

949
ASUS43 KDMX 291008
RWRIA

WEATHER ROUNDUP FOR IOWA
NATIONAL WEATHER SERVICE DES MOINES IA
500 AM CDT SUN MAY 29 2016

NOTE: "FAIR" INDICATES FEW OR NO CLOUDS BELOW 12,000 FEET WITH NO
SIGNIFICANT WEATHER AND/OR OBSTRUCTIONS TO VISIBILITY.

* - THESE STATIONS ARE NOT NWS STATIONS...THUS NOT UNDER NWS
QUALITY CONTROL.  THEY ALSO DO NOT REPORT WEATHER SUCH
AS PRECIPITATION OR FOG.

IAZ001>003-012>014-020>022-031>034-043>046-291100-
   NORTHWEST IOWA

CITY           SKY/WX    TMP DP  RH WIND       PRES   REMARKS
CARROLL *      CLEAR     57  57 100 W7        29.99R
CHEROKEE *     CLEAR     55  55 100 CALM      29.99R FOG
DENISON *      CLEAR     55  55 100 CALM      29.99R
LE MARS *      PTCLDY    55  55 100 SW7       30.00R
ORANGE CITY *  CLEAR     55  55 100 W6        29.99R
SHELDON *      MOCLDY    57  57 100 CALM      29.96S
SIOUX CITY     CLEAR     54  52  93 CALM      29.99S
SPENCER        CLEAR     58  56  93 W7        29.97R
STORM LAKE *   CLEAR     57  57 100 W10       29.99R FOG
$$

IAZ055>058-069>071-079>083-090>094-291100-
   SOUTHWEST IOWA

CITY           SKY/WX    TMP DP  RH WIND       PRES   REMARKS
ATLANTIC *     CLEAR     54  54 100 SW5       30.01R
AUDUBON *      CLEAR     55  54  94 CALM      30.01S
CLARINDA *     FOG       55  55 100 MISG      30.04R VSB 1/2
COUNCIL BLFS * CLEAR     57  55  94 CALM      30.01S
CRESTON *      CLEAR     55  54  94 W5        30.03R
HARLAN  *      CLEAR     54  54 100 CALM      30.05R
LAMONI         CLEAR     57  55  93 W7        30.01S
RED OAK *      CLEAR     54  54 100 CALM      30.02S
SHENANDOAH *   CLEAR     57  57 100 CALM      30.03R
$$

IAZ047>049-059>061-072>074-084-291100-
   CENTRAL IOWA

CITY           SKY/WX    TMP DP  RH WIND       PRES   REMARKS
AMES           CLEAR     59  58  96 W9        29.96R
ANKENY *         N/A     59  59 100 W8        29.98R
BOONE *        CLEAR     59  59 100 W6        29.97R
CHARITON *     CLEAR     59  57  94 W6        30.00R
DES MOINES     PTCLDY    59  55  87 W5        29.98R
GRINNELL*      CLOUDY    61  59  94 W7        29.98R
KNOXVILLE *    CLEAR     59  55  88 W7        29.97S
MARSHALLTOWN   MOCLDY    62  60  93 W10       29.94R
NEWTON *       PTCLDY    59  59 100 W7        29.97R
PELLA *        CLEAR     61  57  88 W10       29.99R
PERRY *          N/A     59  57  94 W8        29.99R
$$

IAZ004>006-015-016-023>025-035-036-291100-
   NORTH CENTRAL IOWA

CITY           SKY/WX    TMP DP  RH WIND       PRES   REMARKS
ALGONA *       CLEAR     59  59 100 W12       29.95S
CLARION *      PTCLDY    59  59 100 W10       29.95S
ESTHERVILLE    CLOUDY    58  57  97 W9        29.94S
FORT DODGE *   PTCLDY    59  55  88 W5        29.96S
MASON CITY     CLEAR     59  59 100 W9        29.94R
FOREST CITY *  CLEAR     59  59 100 W7        29.94R
WEBSTER CITY * CLEAR     61  59  94 W9        29.94S
IOWA FALLS *     N/A     61  59  94 W12       29.96R
$$

IAZ007>011-017>019-026>030-037>042-050>054-066-291100-
   NORTHEAST IOWA

CITY           SKY/WX    TMP DP  RH WIND       PRES   REMARKS
CEDAR RAPIDS   PTCLDY    61  59  93 W10       29.93R
CHARLES CITY * CLOUDY    63  63 100 W13       29.92R
CLINTON *      CLEAR     63  59  87 SW12      29.93S
DECORAH *      CLOUDY    61  61 100 CALM      29.87R
DUBUQUE        CLEAR     61  58  90 SW10      29.90R
MONTICELLO *   CLOUDY    64  59  82 W13       29.91R
OELWEIN *      CLOUDY    63  63 100 W13       29.91R
WATERLOO       CLOUDY    63  60  90 W10       29.91R
$$

IAZ064-065-067-068-078-291100-
   EAST CENTRAL IOWA

CITY           SKY/WX    TMP DP  RH WIND       PRES   REMARKS
DAVENPORT      CLEAR     65  58  78 SW10      29.94S
IOWA CITY      CLEAR     63  58  83 W8        29.95R
MT. PLEASANT * CLEAR     64  61  88 W8        29.98R
MUSCATINE *    PTCLDY    64  59  82 SW10      29.95R
QUAD CITIES    CLEAR     66  57  72 SW9       29.94R
$$

IAZ062-063-075>077-085>089-095>099-291100-
   SOUTHEAST IOWA

CITY           SKY/WX    TMP DP  RH WIND       PRES   REMARKS
BURLINGTON     CLEAR     62  60  93 SW6       29.97R
FAIRFIELD *      N/A    N/A N/A N/A MISG        N/A
FORT MADISON * CLEAR     63  59  88 SW5       29.99R
KEOKUK *       CLEAR     63  59  88 SW7       29.99R
OSKALOOSA *      N/A     61  57  88 W9        29.98R
OTTUMWA        CLEAR     61  57  87 W8        29.98R
WASHINGTON *   CLEAR     63 N/A N/A W10       29.97R
$$

ABBREVIATIONS USED IN REMARKS
   TC - TEMPERATURES IN CELSIUS
  WCI - WIND CHILL INDEX
   HX - HEAT INDEX
  VSB - VISIBILITY
$$





USA.gov is the U.S. government's official web portal to all federal, state and local government web resources and services.